| time (UTC) | temp F | wind direction | speed knots | gust knots | rain 1hr in | rain 24hr in | rain mn in | humidity % | barometer mb |
| 20260507120022 | 44 | 0.0 | 0.0 | 0.00 | 0.00 | 0.00 | 99 | 1018.7 | |
| 20260507115048 | 43 | 0.0 | 0.0 | 0.00 | 0.00 | 0.00 | 99 | 1018.4 | |
| 20260507114016 | 42 | 0.0 | 0.0 | 0.00 | 0.00 | 0.00 | 99 | 1018.4 | |
| 20260507113023 | 42 | 0.0 | 0.0 | 0.00 | 0.00 | 0.00 | 99 | 1018.3 | |
| 20260507112025 | 42 | 0.0 | 0.0 | 0.00 | 0.00 | 0.00 | 99 | 1018.4 | |
| 20260507111030 | 42 | 0.0 | 0.0 | 0.00 | 0.00 | 0.00 | 99 | 1018.4 | |
| 20260507110035 | 42 | 0.0 | 0.0 | 0.00 | 0.00 | 0.00 | 99 | 1018.5 | |
| 20260507105102 | 41 | 0.0 | 0.0 | 0.00 | 0.00 | 0.00 | 99 | 1018.4 | |
| 20260507104045 | 42 | 0.0 | 0.0 | 0.00 | 0.00 | 0.00 | 99 | 1018.2 | |
| 20260507103033 | 42 | 0.0 | 0.0 | 0.00 | 0.00 | 0.00 | 99 | 1018.2 | |
| 20260507102038 | 42 | 0.0 | 0.0 | 0.00 | 0.00 | 0.00 | 99 | 1018.3 | |
| 20260507101043 | 43 | 0.0 | 0.0 | 0.00 | 0.00 | 0.00 | 99 | 1018.3 | |
| 20260507100032 | 43 | 0.0 | 0.0 | 0.00 | 0.00 | 0.00 | 99 | 1018.2 | |
| 20260507095057 | 43 | 0.0 | 0.0 | 0.00 | 0.00 | 0.00 | 99 | 1018.2 | |
| 20260507094041 | 43 | 0.0 | 0.0 | 0.00 | 0.00 | 0.00 | 99 | 1018.0 | |
| 20260507093046 | 44 | 0.0 | 0.0 | 0.00 | 0.00 | 0.00 | 99 | 1018.1 | |
| 20260507092034 | 44 | 0.0 | 0.0 | 0.00 | 0.00 | 0.00 | 99 | 1018.0 | |
| 20260507091059 | 44 | 0.0 | 0.0 | 0.00 | 0.00 | 0.00 | 99 | 1018.1 | |
| 20260507090027 | 44 | 0.0 | 0.0 | 0.00 | 0.01 | 0.00 | 99 | 1018.0 | |
| 20260507085032 | 44 | 0.0 | 0.0 | 0.00 | 0.04 | 0.00 | 99 | 1017.9 | |
| 20260507084021 | 44 | 0.0 | 0.0 | 0.00 | 0.04 | 0.00 | 99 | 1017.8 | |
| 20260507083025 | 44 | 0.0 | 0.0 | 0.00 | 0.04 | 0.00 | 99 | 1017.4 | |
| 20260507082030 | 45 | 0.0 | 0.0 | 0.00 | 0.05 | 0.00 | 99 | 1017.5 | |
| 20260507081017 | 45 | 0.0 | 0.0 | 0.00 | 0.05 | 0.00 | 99 | 1017.5 | |
| 20260507080023 | 45 | 0.0 | 0.0 | 0.00 | 0.05 | 0.00 | 99 | 1017.4 | |
| 20260507075028 | 45 | 0.0 | 0.0 | 0.00 | 0.05 | 0.00 | 99 | 1017.4 | |
| 20260507074033 | 45 | 0.0 | 0.0 | 0.00 | 0.05 | 0.00 | 98 | 1017.3 | |
| 20260507073038 | 45 | 0.0 | 0.0 | 0.00 | 0.05 | 0.00 | 98 | 1017.3 | |
| 20260507072026 | 46 | 0.0 | 0.0 | 0.00 | 0.05 | 0.00 | 98 | 1017.3 | |
| 20260507071052 | 46 | 0.0 | 0.0 | 0.00 | 0.05 | 0.00 | 98 | 1017.4 | |
| 20260507070018 | 46 | 0.0 | 0.0 | 0.00 | 0.05 | 0.00 | 98 | 1017.4 | |
| 20260507065024 | 47 | 0.0 | 0.0 | 0.00 | 0.05 | 0.00 | 98 | 1017.4 | |
| 20260507064028 | 47 | 0.0 | 0.0 | 0.00 | 0.05 | 0.00 | 98 | 1017.6 | |
| 20260507063017 | 47 | 0.0 | 0.0 | 0.00 | 0.05 | 0.00 | 98 | 1017.6 | |
| 20260507062021 | 47 | 0.0 | 0.0 | 0.00 | 0.13 | 0.00 | 97 | 1017.6 | |
| 20260507061026 | 47 | 0.0 | 0.0 | 0.00 | 0.29 | 0.00 | 97 | 1017.7 | |
| 20260507060032 | 47 | 0.0 | 0.0 | 0.00 | 0.29 | 0.00 | 97 | 1017.7 | |
| 20260507055039 | 47 | 0.0 | 0.0 | 0.00 | 0.30 | 0.00 | 97 | 1017.6 | |
| 20260507054024 | 48 | 0.0 | 0.0 | 0.00 | 0.31 | 0.00 | 97 | 1017.6 | |
| 20260507053030 | 48 | 0.0 | 0.0 | 0.00 | 0.32 | 0.00 | 96 | 1017.5 | |
| 20260507052017 | 49 | 0.0 | 0.0 | 0.00 | 0.32 | 0.00 | 96 | 1017.4 | |
| 20260507051022 | 49 | 0.0 | 0.0 | 0.00 | 0.32 | 0.00 | 96 | 1017.4 | |
| 20260507050027 | 49 | 0.0 | 0.0 | 0.00 | 0.32 | 0.00 | 95 | 1017.5 | |
| 20260507045032 | 50 | 0.0 | 0.0 | 0.00 | 0.34 | 0.34 | 94 | 1017.5 | |
| 20260507044020 | 50 | 0.0 | 0.0 | 0.00 | 0.34 | 0.34 | 94 | 1017.6 | |
| 20260507043025 | 51 | 0.0 | 0.0 | 0.00 | 0.34 | 0.34 | 93 | 1017.7 | |
| 20260507042030 | 51 | 0.0 | 0.0 | 0.00 | 0.34 | 0.34 | 92 | 1017.6 | |
| 20260507041119 | 52 | 0.0 | 0.0 | 0.00 | 0.34 | 0.34 | 91 | 1017.3 | |
| 20260507040023 | 52 | 0.0 | 0.0 | 0.00 | 0.34 | 0.34 | 89 | 1017.2 | |
| 20260507035048 | 53 | 0.0 | 0.0 | 0.00 | 0.34 | 0.34 | 87 | 1017.3 | |
| 20260507034016 | 53 | 0.0 | 0.0 | 0.00 | 0.34 | 0.34 | 84 | 1017.2 | |
| 20260507033041 | 54 | 0.0 | 0.0 | 0.00 | 0.36 | 0.34 | 84 | 1017.1 | |
| 20260507032046 | 54 | 331 | 0.0 | 0.9 | 0.00 | 0.39 | 0.34 | 86 | 1017.3 |
| 20260507031031 | 54 | 0.0 | 0.0 | 0.00 | 0.41 | 0.34 | 86 | 1017.5 | |
| 20260507030020 | 53 | 0.0 | 0.0 | 0.00 | 0.42 | 0.34 | 86 | 1017.1 | |
| 20260507025023 | 54 | 0.0 | 0.0 | 0.00 | 0.43 | 0.34 | 86 | 1016.7 | |
| 20260507024029 | 54 | 0.0 | 0.0 | 0.00 | 0.43 | 0.34 | 86 | 1016.9 | |
| 20260507023017 | 55 | 0.0 | 0.0 | 0.00 | 0.45 | 0.34 | 87 | 1017.2 | |
| 20260507022022 | 54 | 0.0 | 0.0 | 0.00 | 0.45 | 0.34 | 86 | 1017.5 | |
| 20260507021026 | 55 | 0.0 | 0.0 | 0.00 | 0.47 | 0.34 | 86 | 1017.8 | |
| 20260507020031 | 54 | 330 | 0.0 | 0.9 | 0.00 | 0.47 | 0.34 | 84 | 1017.1 |
| 20260507015019 | 55 | 0.0 | 0.0 | 0.00 | 0.47 | 0.34 | 83 | 1017.0 | |
| 20260507014044 | 55 | 0.0 | 0.0 | 0.00 | 0.49 | 0.34 | 83 | 1017.1 | |
| 20260507013029 | 55 | 0.0 | 0.0 | 0.00 | 0.50 | 0.34 | 81 | 1016.7 | |
| 20260507012017 | 56 | 0.0 | 0.0 | 0.00 | 0.50 | 0.34 | 79 | 1016.8 | |
| 20260507011043 | 56 | 0.0 | 0.0 | 0.00 | 0.52 | 0.34 | 76 | 1017.0 | |
| 20260507010027 | 57 | 0.0 | 0.0 | 0.00 | 0.52 | 0.34 | 72 | 1017.0 | |
| 20260507005032 | 57 | 0.0 | 0.0 | 0.00 | 0.52 | 0.34 | 72 | 1016.9 | |
| 20260507004021 | 58 | 77 | 0.0 | 0.9 | 0.00 | 0.53 | 0.34 | 71 | 1016.7 |
| 20260507003025 | 58 | 0.0 | 0.0 | 0.00 | 0.53 | 0.34 | 69 | 1016.4 | |
| 20260507002030 | 58 | 346 | 0.0 | 0.9 | 0.00 | 0.54 | 0.34 | 68 | 1016.1 |
| 20260507001018 | 58 | 0.0 | 0.0 | 0.00 | 0.57 | 0.34 | 68 | 1015.8 | |
| 20260507000023 | 59 | 201 | 0.0 | 1.7 | 0.00 | 0.57 | 0.34 | 69 | 1015.6 |
| 20260506235028 | 59 | 308 | 0.0 | 0.9 | 0.00 | 0.58 | 0.34 | 69 | 1015.5 |
| 20260506234033 | 60 | 2 | 0.0 | 0.9 | 0.00 | 0.59 | 0.34 | 69 | 1015.4 |
| 20260506233021 | 60 | 0.0 | 0.0 | 0.00 | 0.60 | 0.34 | 68 | 1015.2 | |
| 20260506232026 | 60 | 0.0 | 0.0 | 0.00 | 0.61 | 0.34 | 66 | 1015.3 | |
| 20260506231031 | 60 | 0.0 | 0.0 | 0.00 | 0.63 | 0.34 | 66 | 1015.4 | |
| 20260506230019 | 61 | 0.0 | 0.9 | 0.00 | 0.66 | 0.34 | 65 | 1015.3 | |
| 20260506225023 | 61 | 90 | 0.0 | 0.9 | 0.00 | 0.74 | 0.34 | 64 | 1015.7 |
| 20260506224028 | 62 | 0.0 | 0.9 | 0.00 | 0.78 | 0.34 | 62 | 1015.6 | |
| 20260506223017 | 62 | 221 | 0.0 | 1.7 | 0.00 | 0.78 | 0.34 | 60 | 1015.6 |
| 20260506222022 | 63 | 38 | 0.0 | 0.9 | 0.00 | 0.78 | 0.34 | 61 | 1015.9 |
| 20260506221026 | 61 | 72 | 0.0 | 0.9 | 0.00 | 0.80 | 0.34 | 62 | 1015.8 |
| 20260506220032 | 61 | 0.0 | 0.0 | 0.00 | 0.80 | 0.34 | 64 | 1016.2 | |
| 20260506215019 | 60 | 297 | 0.0 | 0.9 | 0.00 | 0.81 | 0.34 | 64 | 1016.3 |
| 20260506214044 | 60 | 0.0 | 0.0 | 0.00 | 0.83 | 0.34 | 64 | 1016.3 | |
| 20260506213029 | 60 | 353 | 0.0 | 0.9 | 0.00 | 0.83 | 0.34 | 63 | 1016.1 |
| 20260506212017 | 60 | 297 | 0.0 | 0.9 | 0.00 | 0.84 | 0.34 | 64 | 1016.5 |
| 20260506211022 | 60 | 0.0 | 0.0 | 0.00 | 0.84 | 0.34 | 64 | 1016.7 | |
| 20260506210028 | 59 | 0.0 | 0.0 | 0.00 | 0.84 | 0.34 | 64 | 1016.8 | |
| 20260506205032 | 59 | 340 | 0.9 | 1.7 | 0.00 | 0.84 | 0.34 | 65 | 1016.6 |
| 20260506204021 | 59 | 323 | 0.0 | 0.9 | 0.00 | 0.85 | 0.34 | 66 | 1016.8 |
| 20260506203026 | 59 | 322 | 0.9 | 2.6 | 0.00 | 0.85 | 0.34 | 65 | 1016.8 |
| 20260506202050 | 60 | 328 | 1.7 | 5.2 | 0.00 | 0.86 | 0.34 | 65 | 1015.9 |
| 20260506201019 | 60 | 331 | 0.9 | 1.7 | 0.00 | 0.86 | 0.34 | 63 | 1015.9 |
| 20260506200023 | 59 | 329 | 0.9 | 2.6 | 0.00 | 0.86 | 0.34 | 65 | 1016.5 |
| 20260506195028 | 59 | 332 | 0.0 | 1.7 | 0.00 | 0.86 | 0.34 | 67 | 1016.8 |
| 20260506194016 | 59 | 348 | 0.0 | 1.7 | 0.00 | 0.86 | 0.34 | 67 | 1016.9 |
| 20260506193021 | 60 | 341 | 0.9 | 3.5 | 0.00 | 0.86 | 0.34 | 66 | 1016.9 |
| 20260506192027 | 60 | 319 | 0.9 | 3.5 | 0.00 | 0.87 | 0.34 | 66 | 1016.8 |
| 20260506191034 | 60 | 0.0 | 2.6 | 0.00 | 0.87 | 0.34 | 66 | 1016.5 | |
| 20260506190019 | 61 | 341 | 0.9 | 2.6 | 0.00 | 0.87 | 0.34 | 64 | 1016.6 |
| 20260506185024 | 61 | 254 | 0.0 | 1.7 | 0.00 | 0.87 | 0.34 | 65 | 1016.3 |
| 20260506184049 | 61 | 83 | 0.0 | 1.7 | 0.00 | 0.87 | 0.34 | 64 | 1016.6 |
| 20260506183017 | 61 | 339 | 2.6 | 7.8 | 0.00 | 0.87 | 0.34 | 65 | 1016.5 |
| 20260506182042 | 63 | 353 | 0.0 | 2.6 | 0.00 | 0.87 | 0.34 | 63 | 1016.5 |
| 20260506181027 | 62 | 284 | 0.0 | 1.7 | 0.00 | 0.87 | 0.34 | 65 | 1016.4 |
| 20260506180032 | 61 | 49 | 0.9 | 2.6 | 0.00 | 0.87 | 0.34 | 65 | 1016.6 |
| 20260506175020 | 61 | 302 | 0.9 | 3.5 | 0.00 | 0.87 | 0.34 | 65 | 1016.8 |
| 20260506174025 | 61 | 203 | 0.0 | 1.7 | 0.00 | 0.87 | 0.34 | 65 | 1016.9 |
| 20260506173029 | 60 | 331 | 0.9 | 2.6 | 0.00 | 0.87 | 0.34 | 67 | 1016.8 |
| 20260506172017 | 60 | 353 | 0.9 | 2.6 | 0.00 | 0.87 | 0.34 | 69 | 1016.6 |
| 20260506171043 | 59 | 270 | 0.0 | 0.9 | 0.00 | 0.87 | 0.34 | 69 | 1016.7 |
| 20260506170028 | 59 | 306 | 0.9 | 1.7 | 0.00 | 0.88 | 0.34 | 69 | 1016.4 |
| 20260506165032 | 58 | 334 | 0.9 | 2.6 | 0.00 | 0.89 | 0.34 | 71 | 1016.4 |
| 20260506164020 | 58 | 309 | 0.9 | 6.1 | 0.00 | 0.95 | 0.34 | 73 | 1016.8 |
| 20260506163025 | 60 | 301 | 0.9 | 2.6 | 0.00 | 0.97 | 0.34 | 72 | 1016.5 |
| 20260506162031 | 59 | 88 | 0.9 | 2.6 | 0.00 | 0.97 | 0.34 | 73 | 1016.8 |
| 20260506161018 | 59 | 277 | 0.9 | 1.7 | 0.00 | 0.97 | 0.34 | 74 | 1017.0 |
| 20260506160024 | 57 | 50 | 0.0 | 2.6 | 0.00 | 0.97 | 0.34 | 77 | 1016.6 |
| 20260506155109 | 56 | 305 | 0.0 | 1.7 | 0.00 | 0.97 | 0.34 | 78 | 1016.8 |
| 20260506154016 | 56 | 148 | 0.0 | 2.6 | 0.00 | 0.99 | 0.34 | 78 | 1016.7 |
| 20260506153022 | 57 | 308 | 0.9 | 1.7 | 0.00 | 1.00 | 0.34 | 79 | 1016.5 |
| 20260506152026 | 55 | 311 | 0.9 | 1.7 | 0.00 | 1.00 | 0.34 | 80 | 1016.8 |
| 20260506151031 | 55 | 220 | 0.9 | 2.6 | 0.00 | 1.01 | 0.34 | 80 | 1016.9 |
| 20260506150019 | 55 | 296 | 0.9 | 3.5 | 0.00 | 1.01 | 0.34 | 81 | 1016.8 |
| 20260506145024 | 54 | 11 | 0.9 | 3.5 | 0.00 | 1.01 | 0.34 | 84 | 1016.6 |
| 20260506144110 | 53 | 183 | 0.0 | 3.5 | 0.00 | 1.01 | 0.34 | 89 | 1016.7 |
| 20260506143017 | 53 | 334 | 0.9 | 3.5 | 0.00 | 1.01 | 0.34 | 92 | 1016.6 |
| 20260506142022 | 53 | 23 | 0.0 | 1.7 | 0.00 | 1.02 | 0.34 | 96 | 1016.0 |
| 20260506141028 | 51 | 298 | 0.9 | 2.6 | 0.00 | 1.02 | 0.34 | 96 | 1015.8 |
| 20260506140032 | 51 | 78 | 0.0 | 1.7 | 0.00 | 1.06 | 0.34 | 99 | 1015.4 |
| 20260506135040 | 50 | 332 | 0.9 | 2.6 | 0.00 | 1.23 | 0.34 | 99 | 1015.6 |
| 20260506134025 | 49 | 308 | 0.9 | 1.7 | 0.00 | 1.29 | 0.34 | 99 | 1015.0 |
| 20260506133030 | 49 | 286 | 0.9 | 1.7 | 0.00 | 1.35 | 0.34 | 99 | 1014.7 |
| 20260506132018 | 48 | 0.0 | 1.7 | 0.00 | 1.39 | 0.34 | 99 | 1015.0 | |
| 20260506131023 | 48 | 0.0 | 0.0 | 0.00 | 1.39 | 0.34 | 99 | 1015.1 | |
| 20260506130028 | 48 | 0.0 | 0.0 | 0.00 | 1.39 | 0.34 | 99 | 1014.6 | |
| 20260506125053 | 47 | 0.0 | 0.0 | 0.00 | 1.39 | 0.34 | 99 | 1015.1 | |
| 20260506124042 | 47 | 0.0 | 0.0 | 0.00 | 1.39 | 0.34 | 99 | 1014.9 | |
| 20260506123026 | 47 | 0.0 | 0.0 | 0.00 | 1.39 | 0.34 | 99 | 1014.7 | |
| 20260506122030 | 47 | 0.0 | 0.0 | 0.00 | 1.39 | 0.34 | 99 | 1014.8 | |
| 20260506121019 | 47 | 289 | 0.0 | 0.9 | 0.00 | 1.39 | 0.34 | 99 | 1014.8 |